This is the latest recevied weather packets stored in our database for station/object KB0BDN-13. If no packets are shown the sender has not sent any weather packets the latest 10 day(s).
| Time | Temp. | Humidity | Pressure | Rain* | Wind** | Luminosity | Snow |
|---|---|---|---|---|---|---|---|
| 1778046423 | -1.67° C | 82% | 1005.6 hPa | 0 mm | - | - | - |
| 1778045523 | -1.67° C | 83% | 1005.6 hPa | 0 mm | - | - | - |
| 1778044622 | -2.22° C | 83% | 1005.5 hPa | 0 mm | - | - | - |
| 1778043723 | -2.22° C | 84% | 1005.5 hPa | 0 mm | - | - | - |
| 1778042822 | -2.22° C | 83% | 1005.5 hPa | 0 mm | - | - | - |
| 1778041922 | -2.22° C | 82% | 1005.5 hPa | 0 mm | - | - | - |
| 1778041022 | -1.67° C | 81% | 1005.5 hPa | 0 mm | - | - | - |
| 1778040122 | -1.67° C | 79% | 1005.3 hPa | 0 mm | - | - | - |
| 1778039222 | -1.11° C | 77% | 1005.4 hPa | 0 mm | - | - | - |
| 1778038322 | -1.11° C | 75% | 1005.4 hPa | 0 mm | - | - | - |
| 1778037422 | -1.11° C | 73% | 1005.4 hPa | 0 mm | - | - | - |
| 1778036522 | -1.11° C | 73% | 1005.5 hPa | 0 mm | - | - | - |
| 1778035622 | -1.11° C | 72% | 1005.4 hPa | 0 mm | - | - | - |
| 1778034722 | -0.56° C | 71% | 1005.3 hPa | 0 mm | - | - | - |
| 1778033822 | -0.56° C | 70% | 1005 hPa | 0 mm | - | - | - |
| 1778032922 | -0.56° C | 70% | 1004.9 hPa | 0 mm | - | - | - |
| 1778032022 | -0.56° C | 72% | 1004.9 hPa | 0 mm | - | - | - |
| 1778031122 | -0.56° C | 72% | 1004.5 hPa | 0 mm | - | - | - |
| 1778030222 | -0.56° C | 76% | 1004.4 hPa | 0 mm | - | - | - |
| 1778029322 | -0.56° C | 71% | 1004.3 hPa | 0 mm | - | - | - |
| 1778028422 | 0° C | 71% | 1004.3 hPa | 0 mm | - | - | - |
| 1778027522 | 0° C | 70% | 1004 hPa | 0 mm | - | - | - |
| 1778026622 | 0° C | 70% | 1004.1 hPa | 0 mm | - | - | - |
| 1778025722 | 0° C | 71% | 1004 hPa | 0 mm | - | - | - |
| 1778024822 | 0° C | 70% | 1003.8 hPa | 0 mm | - | - | - |
* Rain latest hour (hover to see other rain measurements)
** Current wind speed in m/s (hover to see current wind gust speed)